JS2WAD-13 Weather Reports


Display with metric or nautical units.
time (UTC)temp
F
wind
direction
speed
MPH
gust
MPH
rain 1hr
in
rain 24hr
in
rain mn
in
humidity
%
barometer
mb
20260505080623 70 133 4.0 8.0 0.00 0.00 0.00 45 911.2
20260505080123 70 143 5.0 10.0 0.00 0.00 0.00 45 911.2
20260505075623 70 147 4.0 10.0 0.00 0.00 0.00 44 911.2
20260505075123 70 145 5.0 12.0 0.00 0.00 0.00 45 911.1
20260505074623 71 152 5.0 15.0 0.00 0.00 0.00 44 911.2
20260505074123 70 154 6.0 15.0 0.00 0.00 0.00 44 911.2
20260505073623 71 147 6.0 14.0 0.00 0.00 0.00 44 911.1
20260505073123 71 150 5.0 14.0 0.00 0.00 0.00 44 911.1
20260505072623 71 151 4.0 9.0 0.00 0.00 0.00 44 911.1
20260505072123 71 143 6.0 15.0 0.00 0.00 0.00 45 911.1
20260505071623 71 162 6.0 15.0 0.00 0.00 0.00 44 911.0
20260505071123 71 145 5.0 10.0 0.00 0.00 0.00 44 911.0
20260505070623 72 158 5.0 11.0 0.00 0.00 0.00 44 910.9
20260505070123 72 161 5.0 11.0 0.00 0.01 0.00 44 910.9
20260505065623 71 141 6.0 12.0 0.00 0.01 0.00 44 910.9
20260505065123 72 313 6.0 14.0 0.00 0.01 0.00 45 910.8
20260505064623 71 152 7.0 11.0 0.00 0.01 0.00 45 910.9
20260505064123 71 141 7.0 18.0 0.00 0.01 0.00 45 910.8
20260505063623 71 148 7.0 14.0 0.00 0.01 0.00 46 910.7
20260505063123 72 152 6.0 14.0 0.00 0.01 0.00 45 910.7
20260505062623 72 145 6.0 14.0 0.00 0.01 0.00 45 910.8
20260505062123 72 152 6.0 11.0 0.00 0.01 0.00 45 910.9
20260505061623 72 139 5.0 11.0 0.00 0.01 0.00 45 910.8
20260505061123 72 144 6.0 11.0 0.00 0.01 0.00 45 910.8
20260505060623 72 172 5.0 14.0 0.00 0.01 0.00 44 910.7
20260505060124 72 359 5.0 13.0 0.00 0.01 0.00 44 910.6
20260505055623 72 135 6.0 9.0 0.00 0.01 0.00 44 910.6
20260505055124 72 145 8.0 18.0 0.00 0.01 0.00 43 910.5
20260505054623 72 158 7.0 16.0 0.00 0.01 0.00 43 910.6
20260505054123 72 174 5.0 14.0 0.00 0.01 0.00 43 910.6
20260505053623 72 141 6.0 11.0 0.00 0.01 0.00 42 910.5
20260505053124 73 141 6.0 16.0 0.00 0.01 0.00 41 910.6
20260505052624 73 149 5.0 11.0 0.00 0.01 0.00 40 910.6
20260505052124 73 145 6.0 16.0 0.00 0.01 0.00 38 910.6
20260505051624 73 143 6.0 14.0 0.00 0.01 0.00 37 910.6
20260505051124 73 137 5.0 12.0 0.00 0.01 0.00 37 910.6
20260505050624 73 106 5.0 14.0 0.00 0.01 0.00 35 910.5
20260505050124 73 130 5.0 14.0 0.00 0.01 0.00 35 910.5
20260505041624 73 143 4.0 9.0 0.00 0.01 0.00 32 910.5
20260505041124 73 145 4.0 9.0 0.00 0.01 0.00 31 910.5
20260505040624 73 149 3.0 8.0 0.00 0.01 0.00 31 910.6
20260505040124 73 139 3.0 9.0 0.00 0.01 0.00 31 910.5
20260505035624 73 177 3.0 7.0 0.00 0.01 0.00 31 910.5
20260505035124 73 146 3.0 6.0 0.00 0.01 0.00 30 910.6
20260505034624 73 153 3.0 11.0 0.00 0.01 0.00 29 910.5
20260505034124 73 137 2.0 4.0 0.00 0.01 0.00 29 910.5
20260505033624 72 149 2.0 8.0 0.00 0.01 0.00 29 910.6
20260505033124 72 170 1.0 5.0 0.00 0.01 0.00 30 910.6
20260505032624 71 46 2.0 4.0 0.00 0.01 0.00 30 910.6
20260505032124 71 208 2.0 9.0 0.00 0.01 0.00 29 910.7
20260505031624 70 142 1.0 5.0 0.00 0.01 0.00 29 910.7
20260505031124 70 9 1.0 3.0 0.00 0.01 0.00 30 910.7
20260505030624 69 159 2.0 6.0 0.00 0.01 0.00 31 910.9
20260505030124 70 193 3.0 5.0 0.00 0.01 0.00 31 910.9
20260505025624 70 196 2.0 10.0 0.00 0.01 0.00 31 910.9
20260505025124 69 217 1.0 3.0 0.00 0.01 0.00 31 910.8
20260505024624 68 39 1.0 2.0 0.00 0.01 0.00 32 910.8
20260505024124 68 34 1.0 3.0 0.00 0.01 0.00 36 910.9
20260505023624 67 32 1.0 3.0 0.00 0.01 0.00 34 910.9
20260505023124 67 29 2.0 3.0 0.00 0.01 0.00 34 910.8
20260505022624 66 26 1.0 5.0 0.00 0.01 0.00 32 910.9
20260505022124 66 44 2.0 2.0 0.00 0.01 0.00 32 911.0
20260505021624 65 46 4.0 8.0 0.00 0.01 0.00 37 911.2
20260505021124 65 348 5.0 9.0 0.00 0.01 0.00 41 911.3
20260505020624 65 25 4.0 9.0 0.00 0.01 0.00 39 911.3
20260505020124 65 10 2.0 9.0 0.00 0.01 0.00 36 911.4
20260505015624 64 17 2.0 2.0 0.00 0.01 0.00 36 911.4
20260505015124 64 14 3.0 9.0 0.00 0.01 0.00 43 911.4
20260505014624 63 21 3.0 9.0 0.00 0.01 0.00 51 911.4
20260505014124 63 35 4.0 8.0 0.00 0.01 0.00 46 911.4
20260505013624 63 36 4.0 10.0 0.00 0.01 0.00 42 911.5
20260505013124 62 33 3.0 8.0 0.00 0.01 0.00 46 911.5
20260505012624 62 33 2.0 9.0 0.00 0.01 0.00 47 911.5
20260505012124 62 31 2.0 9.0 0.00 0.01 0.00 47 911.5
20260505011624 61 68 2.0 4.0 0.00 0.01 0.00 48 911.5
20260505011124 61 30 2.0 9.0 0.00 0.01 0.00 48 911.5
20260505010624 61 34 1.0 4.0 0.00 0.01 0.00 49 911.5
20260505010124 61 36 2.0 6.0 0.00 0.01 0.00 50 911.5
20260505005624 61 30 3.0 5.0 0.00 0.01 0.00 48 911.5
20260505005124 60 33 2.0 6.0 0.00 0.01 0.00 52 911.6
20260505004624 60 29 3.0 6.0 0.00 0.01 0.00 51 911.5
20260505004124 60 35 4.0 9.0 0.00 0.01 0.00 49 911.4
20260505003624 60 43 3.0 9.0 0.00 0.01 0.00 46 911.4
20260505003124 60 25 4.0 6.0 0.00 0.01 0.00 50 911.4
20260505002624 60 26 3.0 10.0 0.00 0.01 0.00 54 911.3
20260505002124 59 35 2.0 6.0 0.00 0.01 0.00 61 911.3
20260505001624 59 42 2.0 5.0 0.00 0.01 0.00 52 911.3
20260505001124 59 28 2.0 6.0 0.00 0.01 0.00 50 911.4
20260505000624 59 31 3.0 8.0 0.00 0.01 0.00 54 911.4
20260505000124 59 39 2.0 5.0 0.00 0.01 0.00 53 911.4
20260504235624 58 42 3.0 4.0 0.00 0.01 0.00 67 911.3
20260504235124 58 26 3.0 9.0 0.00 0.01 0.00 62 911.3
20260504234624 58 38 4.0 9.0 0.00 0.01 0.00 55 911.3
20260504234124 58 35 4.0 9.0 0.00 0.01 0.00 56 911.3
20260504233624 57 33 4.0 10.0 0.00 0.01 0.00 54 911.3
20260504233124 57 29 5.0 10.0 0.00 0.01 0.00 57 911.4
20260504232624 57 38 5.0 9.0 0.00 0.01 0.00 57 911.3
20260504232124 57 27 5.0 11.0 0.00 0.01 0.00 56 911.3
20260504231624 57 41 4.0 10.0 0.00 0.01 0.00 60 911.4
20260504231124 57 37 5.0 7.0 0.00 0.01 0.00 62 911.3
20260504230624 56 4 5.0 10.0 0.00 0.01 0.00 58 911.3
20260504230124 56 27 4.0 11.0 0.00 0.01 0.00 58 911.3
20260504225624 56 9 4.0 10.0 0.00 0.01 0.00 61 911.3
20260504225124 56 33 5.0 9.0 0.00 0.01 0.00 61 911.2
20260504224624 56 29 5.0 11.0 0.00 0.01 0.00 65 911.3
20260504224124 55 31 5.0 10.0 0.00 0.01 0.00 59 911.3
20260504223624 55 37 5.0 10.0 0.00 0.01 0.00 63 911.3
20260504223125 55 39 4.0 9.0 0.00 0.01 0.00 63 911.2
20260504222624 55 37 3.0 9.0 0.00 0.01 0.00 62 911.3
20260504222125 55 30 2.0 6.0 0.00 0.01 0.00 65 911.2
20260504221625 55 38 1.0 4.0 0.00 0.01 0.00 64 911.2
20260504221125 55 35 0.0 3.0 0.00 0.01 0.00 64 911.0
20260504220625 55 35 0.0 2.0 0.00 0.01 0.00 66 911.0
20260504220125 54 35 1.0 2.0 0.00 0.01 0.00 66 910.9
20260504215625 54 34 1.0 3.0 0.00 0.01 0.00 65 910.9
20260504215125 54 32 1.0 5.0 0.00 0.01 0.00 69 910.8
20260504214625 54 36 1.0 5.0 0.00 0.01 0.00 69 910.8
20260504214125 54 39 2.0 5.0 0.00 0.01 0.00 73 910.7
20260504213625 54 33 2.0 5.0 0.00 0.01 0.00 70 910.7
20260504213125 54 38 2.0 5.0 0.00 0.01 0.00 67 910.6
20260504212625 54 37 1.0 4.0 0.00 0.01 0.00 67 910.5
20260504212125 54 40 1.0 2.0 0.00 0.01 0.00 69 910.5
20260504211625 54 40 1.0 2.0 0.00 0.01 0.00 68 910.5
20260504211125 54 41 2.0 3.0 0.00 0.01 0.00 69 910.3
20260504210625 54 45 2.0 3.0 0.00 0.01 0.00 68 910.3
20260504210125 54 40 2.0 5.0 0.00 0.01 0.00 74 910.0
20260504205625 53 32 2.0 5.0 0.00 0.01 0.00 68 910.0
20260504205125 53 43 1.0 3.0 0.00 0.01 0.00 67 909.9
20260504204625 53 38 0.0 1.0 0.00 0.01 0.00 69 909.9
20260504204125 53 40 0.0 2.0 0.00 0.01 0.00 69 909.8
20260504203625 53 40 0.0 1.0 0.00 0.01 0.00 69 909.6
20260504203125 53 40 1.0 2.0 0.00 0.01 0.00 68 909.5
20260504202625 53 39 3.0 5.0 0.00 0.01 0.00 65 909.4
20260504202125 53 29 5.0 9.0 0.00 0.01 0.00 65 909.1
20260504201625 53 15 6.0 10.0 0.00 0.01 0.00 64 909.0
20260504201125 53 21 6.0 11.0 0.00 0.01 0.00 64 909.0
20260504200625 53 29 6.0 11.0 0.00 0.01 0.00 65 908.8
20260504200125 53 36 5.0 10.0 0.00 0.01 0.00 64 908.8
20260504195625 53 46 5.0 12.0 0.00 0.01 0.00 65 908.7
20260504195125 53 31 5.0 11.0 0.00 0.01 0.00 64 908.7
20260504194625 53 37 4.0 7.0 0.00 0.01 0.00 67 908.7
20260504194125 53 33 5.0 10.0 0.00 0.01 0.00 66 908.6
20260504193625 53 4 6.0 10.0 0.00 0.01 0.00 64 908.6
20260504193125 53 31 6.0 11.0 0.00 0.01 0.00 64 908.6
20260504192625 54 14 5.0 10.0 0.00 0.01 0.00 65 908.5
20260504192125 54 23 5.0 9.0 0.00 0.01 0.00 64 908.5
20260504191625 54 29 5.0 11.0 0.00 0.01 0.00 66 908.5
20260504191125 54 15 5.0 10.0 0.00 0.01 0.00 68 908.4
20260504190625 54 23 4.0 12.0 0.00 0.01 0.00 66 908.4
20260504190125 54 33 4.0 8.0 0.00 0.01 0.00 69 908.4
20260504185625 54 25 5.0 11.0 0.00 0.01 0.00 68 908.4
20260504185125 54 23 6.0 11.0 0.00 0.01 0.00 67 908.3
20260504184625 54 23 5.0 10.0 0.00 0.01 0.00 66 908.2
20260504184125 54 33 4.0 7.0 0.00 0.01 0.00 70 908.2
20260504183625 54 37 4.0 9.0 0.00 0.01 0.00 66 908.2
20260504183125 54 342 5.0 9.0 0.00 0.01 0.00 68 908.1
20260504182625 54 43 5.0 13.0 0.00 0.01 0.00 67 908.0
20260504182125 54 35 5.0 10.0 0.00 0.01 0.00 70 907.9
20260504181625 54 354 5.0 11.0 0.00 0.01 0.00 65 907.8
20260504181125 54 33 5.0 9.0 0.00 0.01 0.00 66 907.8
20260504180625 54 25 4.0 10.0 0.00 0.01 0.00 67 907.8
20260504180125 55 28 6.0 8.0 0.00 0.01 0.00 69 907.6
20260504175625 55 20 6.0 12.0 0.00 0.01 0.00 66 907.6
20260504175125 55 33 5.0 12.0 0.00 0.01 0.00 67 907.6
20260504174625 55 30 6.0 11.0 0.00 0.01 0.00 70 907.6
20260504174125 55 31 5.0 11.0 0.00 0.01 0.00 69 907.5
20260504173625 55 29 5.0 9.0 0.00 0.01 0.00 68 907.5
20260504173125 55 37 5.0 9.0 0.00 0.01 0.00 67 907.4
20260504172625 55 14 5.0 10.0 0.00 0.01 0.00 66 907.4
20260504172125 55 35 6.0 10.0 0.00 0.01 0.00 67 907.2
20260504171625 55 26 6.0 12.0 0.00 0.01 0.00 67 907.1
20260504171125 55 35 6.0 12.0 0.00 0.01 0.00 65 907.0
20260504170625 56 40 6.0 12.0 0.00 0.01 0.00 65 907.0
20260504170125 56 41 7.0 12.0 0.00 0.01 0.00 66 906.9
20260504160125 57 29 8.0 13.0 0.00 0.01 0.01 60 906.2
20260504151125 57 4 5.0 12.0 0.00 0.01 0.01 65 905.8
20260504150626 57 32 5.0 13.0 0.00 0.01 0.01 65 905.9
20260504150126 58 43 5.0 11.0 0.00 0.01 0.01 64 905.9
20260504141126 58 39 7.0 15.0 0.00 0.01 0.01 65 905.5
20260504140626 58 39 7.0 13.0 0.00 0.01 0.01 62 905.6
20260504140126 58 33 7.0 13.0 0.00 0.01 0.01 63 905.6
20260504130626 59 23 8.0 14.0 0.00 0.01 0.01 67 904.9
20260504130126 59 4 8.0 15.0 0.00 0.01 0.01 63 904.9
20260504120126 60 28 7.0 14.0 0.00 0.01 0.01 66 904.2
20260504110626 60 35 7.0 17.0 0.00 0.01 0.01 65 903.1
20260504110126 61 36 6.0 17.0 0.00 0.01 0.01 67 903.1
20260504100126 61 16 8.0 15.0 0.00 0.01 0.01 64 901.8
20260504090126 62 35 7.0 13.0 0.00 0.02 0.01 69 900.8
20260504081626 61 32 6.0 15.0 0.01 0.02 0.01 78 900.3
20260504081126 61 34 7.0 9.0 0.01 0.02 0.01 76 900.3